SCP
0 0 0 0 0 0 0 0 0 0 0 0 0 0 0 0 0 0 0 0 0 0 0 0 0 0 0 0 0 0 0 0 0 0 0 0 0 0 0 0 0 0 0 0
0 0 0 0 0 0 0 0 0 0 0 0 0 0 0 0 0 0 0 0 0 0 0 0 0 0 0 0 0 0 0 0 0 0 0 0 0 0 0 0 0 0 0 0
0 0 0 0 0 0 0 0 0 0 0 0 0 0 0 0 0 0 0 0 0 0 0 0 0 0 0 0 0 0 0 0 0 0 0 0 0 0 0 0 0 0 0 0
0 0 0 0 0 0 0 0 0 0 0 0 0 0 0 0 0 0 0 0 0 0 0 0 0 0 0 0 0 0 0 0 0 0 0 0 0 0 0 0 0 0 0 0
0 0 0 0 0 0 0 0 0 0 0 0 0 0 0 0 0 0 0 0 0 0 0 0 0 0 0 0 0 0 0 0 0 0 0 0 0 0 0 0 0 0 0 0
0 0 0 0 0 0 0 0 0 0 0 0 0 0 0 0 0 0 0 0 0 0 0 0 0 0 0 0 0 0 0 0 0 0 0 0 0 0 0 0 0 0 0 0
0 0 0 0 0 0 0 0 0 0 0 0 0 0 0 0 0 0 0 0 0 0 0 0 0 0 0 0 0 0 0 0 0 0 0 0 0 0 0 0 0 0 0 0
0 0 0 0 0 0 0 0 0 0 0 0 0 0 0 0 0 0 0 0 0 0 0 0 0 0 0 0 0 0 0 0 0 0 0 0 0 0 0 0 0 0 0 0
0 0 0 0 0 0 0 0 0 0 0 0 0 0 0 0 0 0 0 0 0 0 0 0 0 0 0 0 0 0 0 0 0 0 0 0 0 0 0 0 0 0 0 0
0 0 0 0 0 0 0 0 0 0 0 0 0 0 0 0 0 0 0 0 0 0 0 0 0 0 0 0 0 0 0 0 0 0 0 0 0 0 0 0 0 0 0 0
0 0 0 0 0 0 0 0 0 0 0 0 0 0 0 0 0 0 0 0 0 0 0 0 0 0 0 0 0 0 0 0 0 0 0 0 0 0 0 0 0 0 0 0
0 0 0 0 0 0 0 0 0 0 0 0 0 0 0 0 0 0 0 0 0 0 0 0 0 0 0 0 0 0 0 0 0 0 0 0 0 0 0 0 0 0 0 0
0 0 0 0 0 0 0 0 0 0 0 0 0 0 0 0 0 0 0 0 0 0 0 0 0 0 0 0 0 0 0 0 0 0 0 0 0 0 0 0 0 0 0 0
0 0 0 0 0 0 0 0 0 0 0 0 0 0 0 0 0 0 0 0 0 0 0 0 0 0 0 0 0 0 0 0 0 0 0 0 0 0 0 0 0 0 0 0
0 0 0 0 0 0 0 0 0 0 0 0 0 0 0 0 0 0 0 0 0 0 0 0 0 0 0 0 0 0 0 0 0 0 0 0 0 0 0 0 0 0 0 0
0 0 0 0 0 0 0 0 0 0 0 0 0 0 0 0 0 0 0 0 0 0 0 0 0 0 0 0 0 0 0 0 0 0 0 0 0 0 0 0 0 0 0 0
0 0 0 0 0 0 0 0 0 0 0 0 0 0 0 0 0 0 0 0 0 0 0 0 0 0 0 0 0 0 0 0 0 0 0 0 0 0 0 0 0 0 0 0
0 0 0 0 0 0 0 0 0 0 0 0 0 0 0 0 0 0 0 0 0 0 0 0 0 0 0 0 0 0 0 0 0 0 0 0 0 0 0 0 0 0 0 0
0 0 0 0 0 0 0 0 0 -0 0 0 0 0 0 0 0 0 0 0 0 0 0 0 0 0 0 0 0 0 0 0 0 0 0 0 0 0 0 0 0 0 0 0
0 0 0 0 0 0 0 -0 -0 -0 0 0 0 0 0 0 0 0 0 0 0 0 0 0 0 0 0 0 0 0 0 0 0 0 0 0 0 0 0 0 0 0 0 0
0 0 0 0 0 0 0 -0 -0 0 0 0 0 0 0 0 0 0 0 0 0 0 0 0 0 0 0 0 0 0 0 0 0 0 0 0 0 0 0 0 0 0 0 0
0 0 0 0 0 0 -0 0 0 0 0 0 0 0 0 0 0 0 0 0 0 0 0 0 0 0 0 0 0 0 0 0 0 0 0 0 0 0 0 0 0 0 0 0
0 0 0 0 0 0 0 0 0 0 0 0 0 0 0 0 0 0 0 0 0 0 0 0 0 0 0 0 0 0 0 0 0 0 0 0 0 0 0 0 0 0 0 0
0 0 0 -0 -0 0 0 0 0 0 0 0 0 0 0 0 0 0 0 0 0 0 0 0 0 0 0 0 0 0 0 0 0 0 0 0 0 0 0 0 0 0 0 0
0 0 0 0 0 0 0 0 0 0 0 0 0 0 0 0 0 0 0 0 0 0 0 0 0 0 0 0 0 0 0 0 0 0 0 0 0 0 0 0 0 0 0 0
0 0 0 0 0 0 0 0 0 0 0 0 0 0 0 0 0 0 0 0 0 0 0 0 0 0 0 0 0 0 0 0 0 0 0 0 0 0 0 0 0 0 0 0
0 0 0 0 0 0 0 0 0 0 0 0 0 0 0 0 0 0 0 0 0 0 0 0 0 0 0 0 0 0 0 0 0 0 0 0 0 0 0 0 0 0 0 0
Wind_Speed
3 3 1 3 5 6 7 7 6 5 5 5 3 2 1 1 1 2 2 1 1 0 0 1 1 1 1 1 1 1 1 1 1 1 1 1 2 2 2 2 2 2 2 2
3 2 2 4 6 7 8 8 8 7 8 5 2 1 1 1 1 1 2 2 1 1 0 0 0 0 1 1 1 1 1 1 1 1 1 1 2 2 2 2 2 2 2 2
2 1 2 6 7 8 6 6 6 9 8 2 1 2 2 2 2 1 1 1 1 1 1 0 0 0 1 0 0 0 1 1 1 1 1 1 1 2 2 2 2 2 2 2
1 0 6 5 2 5 6 5 5 4 3 2 3 3 2 1 1 1 1 1 1 1 1 1 0 0 0 0 0 1 1 0 1 1 1 1 1 1 2 2 2 2 2 2
2 3 6 2 1 2 3 4 4 6 5 3 2 2 1 0 1 1 1 1 1 1 1 1 1 1 1 0 1 1 1 1 1 0 1 1 2 2 1 1 2 2 2 2
3 4 5 3 1 2 2 4 2 4 5 2 1 1 3 1 0 0 0 1 1 1 1 1 1 1 1 1 1 1 1 1 1 0 1 1 1 2 2 1 2 2 2 2
5 5 5 1 1 3 3 5 2 1 3 3 3 3 1 1 1 1 1 1 1 1 1 1 0 1 1 1 2 1 0 0 1 1 1 1 1 1 1 2 2 2 3 3
4 5 7 1 3 4 3 1 1 1 1 2 1 0 0 1 1 0 1 1 1 1 0 1 1 1 1 2 2 0 0 1 1 1 1 1 1 1 1 2 2 2 3 3
6 6 2 4 3 2 0 1 1 1 0 1 1 1 1 1 1 1 0 0 1 1 1 1 1 1 2 2 1 1 1 1 2 2 1 1 1 1 1 1 2 2 2 3
3 4 3 3 2 1 1 1 1 1 0 1 1 2 2 2 1 1 1 0 0 1 1 2 1 1 2 2 1 1 1 2 2 1 1 1 2 2 2 2 2 3 3 3
4 4 2 3 3 2 0 0 1 1 0 1 2 2 2 2 2 1 1 1 1 1 2 2 2 2 2 1 1 1 1 2 2 2 2 1 2 2 2 3 3 3 3 3
5 3 3 2 1 1 1 1 1 1 1 1 1 2 2 2 1 1 1 1 1 1 2 3 2 2 2 1 1 2 2 2 2 2 1 1 1 2 4 4 6 6 5 5
2 0 1 1 1 1 1 1 1 1 2 2 2 1 1 1 1 1 1 2 2 2 3 3 3 3 2 1 2 2 3 2 2 2 2 2 2 2 3 4 5 5 6 6
1 1 1 1 0 1 0 0 1 1 1 1 1 1 1 1 1 2 2 2 2 2 3 3 3 3 2 2 2 2 2 3 2 2 2 2 2 2 2 3 3 3 4 6
1 0 1 0 1 1 0 1 1 1 1 1 0 1 1 1 2 3 2 2 2 2 3 2 3 3 2 2 2 2 2 2 2 2 2 2 2 2 2 3 3 3 3 4
1 1 1 1 1 1 0 0 1 2 2 1 1 1 2 2 2 2 2 2 2 3 3 3 3 3 2 2 2 2 2 4 3 2 2 2 2 2 2 2 2 3 3 3
2 2 2 2 2 2 2 2 2 3 2 2 2 1 1 1 2 2 2 2 2 3 3 3 3 3 2 2 2 2 2 3 4 2 2 2 2 2 2 2 3 3 3 4
3 3 3 3 3 2 3 2 2 2 2 2 1 1 1 2 2 3 2 2 2 3 3 3 3 2 2 2 2 2 2 2 2 2 2 2 2 2 2 3 3 3 3 4
1 1 1 1 2 2 2 2 2 1 1 1 1 1 2 2 2 2 2 2 2 3 3 2 4 2 2 2 3 2 2 2 2 2 2 3 3 2 2 3 3 3 3 3
0 0 0 1 1 1 1 1 1 0 1 0 0 1 2 2 2 2 1 2 2 3 3 3 2 2 2 2 3 1 2 2 2 2 2 2 2 2 2 3 3 3 3 3
0 0 0 0 1 1 0 0 0 1 1 0 1 1 2 2 2 1 1 2 3 2 2 3 2 1 2 2 2 1 1 2 2 2 2 2 2 2 3 3 3 3 3 3
0 0 0 0 1 1 1 1 0 0 1 1 1 1 1 2 2 2 2 2 3 3 2 1 1 2 3 2 1 1 1 2 2 2 2 2 2 2 3 3 3 3 3 3
0 0 0 0 0 0 1 1 0 0 1 1 1 2 2 2 2 1 2 2 1 3 2 1 3 4 3 1 1 1 1 2 2 2 2 2 2 2 3 3 3 3 3 3
0 0 0 0 1 1 1 1 1 1 1 2 2 2 2 2 2 2 2 3 4 4 2 3 5 4 3 1 1 1 1 1 2 2 2 2 2 2 2 3 3 3 3 4
0 0 0 1 1 0 1 1 1 1 1 1 2 2 1 1 2 2 2 2 4 3 2 3 4 4 2 1 1 1 1 1 2 2 2 2 2 2 3 3 3 3 3 3
0 0 0 0 1 1 1 1 1 1 1 2 2 2 2 1 1 2 1 2 2 3 2 2 2 2 1 1 1 1 2 2 2 2 2 2 3 3 3 3 4 3 3 4
0 0 0 0 0 0 1 1 1 1 1 1 2 2 2 2 2 2 2 2 2 2 2 1 1 1 1 1 1 1 2 2 2 2 2 2 2 3 3 4 3 3 3 4
Wind_Direction
266 292 220 221 218 204 213 224 225 249 257 254 234 211 199 161 145 139 148 141 129 109 72 87 65 53 52 32 28 10 6 8 344 349 9 11 358 342 331 326 328 336 339 336
258 230 244 261 244 221 225 237 247 267 273 264 245 194 215 185 178 193 183 174 175 173 149 29 50 32 45 22 16 6 341 342 355 2 18 14 359 354 351 348 339 343 336 340
245 228 296 258 230 213 218 222 216 235 249 268 272 234 228 231 208 204 189 182 186 189 201 223 303 285 203 213 353 332 317 339 343 346 5 1 346 357 351 342 337 336 326 331
244 149 237 240 201 194 207 230 221 237 266 264 258 263 256 205 181 209 192 195 203 191 179 171 185 271 181 161 225 252 254 285 312 342 355 352 348 344 333 332 336 335 328 326
196 239 262 243 213 165 190 255 227 230 257 285 335 328 282 168 151 204 197 191 187 173 163 157 177 201 157 210 228 234 241 252 301 359 352 345 331 322 322 329 328 325 317 320
209 229 243 231 136 122 108 268 258 214 237 240 85 250 258 354 20 301 173 124 125 119 117 148 186 148 172 228 230 239 246 258 282 292 291 296 300 309 317 315 307 308 311 314
219 236 256 235 165 122 168 244 302 218 224 195 205 230 254 28 12 356 91 103 108 115 142 202 195 144 223 238 242 252 279 298 287 278 268 269 287 300 305 306 306 305 303 303
196 221 241 165 138 180 212 327 358 346 215 191 224 293 7 3 337 38 87 105 116 137 207 244 199 190 238 250 249 229 241 271 269 261 268 282 274 290 294 295 297 299 300 303
196 213 201 162 178 205 235 304 323 333 320 145 185 257 277 288 290 274 216 163 135 158 235 265 237 203 237 263 252 205 230 257 267 272 268 258 252 261 279 286 285 290 293 297
246 248 217 200 211 243 264 283 344 356 107 152 219 246 263 268 270 257 256 185 157 181 249 273 272 249 246 260 244 207 235 259 269 261 273 272 273 264 262 266 272 281 287 292
240 257 265 226 213 217 193 26 357 345 294 214 212 241 249 254 247 246 266 271 218 228 253 273 282 274 269 261 224 226 249 259 265 261 257 266 278 272 269 255 255 263 267 273
219 207 202 232 180 150 188 234 230 251 286 267 231 244 255 254 251 247 253 256 252 255 260 272 278 274 269 246 217 216 244 250 251 255 258 261 271 298 299 285 286 282 281 282
195 135 192 250 14 73 193 253 259 235 237 259 265 234 231 248 264 261 263 258 251 256 262 270 275 275 267 234 224 222 236 247 251 258 258 263 272 282 300 311 304 298 295 297
135 92 244 240 277 11 38 342 341 305 278 246 235 216 215 251 268 264 261 264 265 264 267 267 269 273 266 229 220 229 239 253 255 248 248 253 259 268 276 288 303 307 305 304
235 217 217 261 340 351 41 64 15 313 310 306 204 204 221 247 262 269 271 281 286 277 270 266 265 272 269 226 223 235 240 238 239 244 248 251 255 265 272 279 284 295 306 307
249 279 227 234 255 280 311 279 260 270 276 270 258 251 251 254 266 278 283 274 268 273 276 270 266 269 264 234 229 239 241 251 255 246 245 251 255 259 267 274 281 287 291 297
174 235 240 247 249 257 257 256 248 257 266 262 258 269 285 296 295 292 292 290 277 278 278 268 269 275 266 242 227 235 240 250 258 260 250 253 257 259 265 269 275 283 286 289
206 218 218 217 225 246 266 271 262 260 259 258 253 250 260 261 270 289 299 312 315 305 294 278 272 274 260 246 235 232 236 244 249 254 261 262 267 266 268 271 275 280 289 292
220 228 241 237 228 224 239 257 259 260 270 236 216 244 262 270 273 287 302 312 300 293 295 288 290 291 265 254 257 234 227 238 254 262 260 266 274 271 271 271 274 278 283 291
13 352 294 283 261 228 242 258 263 286 282 241 240 287 294 293 288 288 293 285 272 269 282 291 292 275 261 258 263 232 221 233 245 253 258 258 262 267 269 271 274 276 279 285
353 6 12 1 343 332 252 225 197 256 292 286 230 256 277 295 294 281 282 290 293 293 292 298 301 279 263 262 258 227 224 237 247 250 254 259 266 270 270 272 277 281 284 288
171 95 24 31 38 350 342 349 291 265 302 309 296 288 290 292 292 285 265 261 283 309 320 301 293 281 287 284 238 233 243 251 256 257 258 261 265 271 276 279 279 283 285 286
146 142 85 67 69 343 349 349 327 285 281 279 275 268 265 270 269 273 293 295 287 302 314 293 295 300 307 303 254 248 251 256 257 260 263 264 266 270 274 279 281 284 286 288
56 13 7 30 65 55 350 331 332 316 287 283 273 263 263 279 293 278 271 291 307 311 312 298 304 308 316 321 275 266 265 260 258 262 268 273 273 275 277 279 283 286 286 288
86 45 78 60 34 320 299 320 340 335 328 317 304 292 274 251 255 281 294 292 298 313 315 306 309 312 320 292 274 271 270 264 266 270 266 270 271 274 279 281 282 284 286 286
136 206 218 251 256 277 294 318 323 321 329 325 320 319 321 311 286 281 289 293 295 306 309 299 296 298 292 272 269 272 270 276 285 282 274 275 276 277 278 280 282 282 284 284
141 131 84 15 360 334 312 305 302 304 308 304 308 315 319 318 314 307 305 305 305 305 301 298 295 284 275 272 275 276 275 272 269 270 273 275 277 277 277 278 281 283 286 286